This demonstration page uses our WeatherBlox Daily Observations layout. Learn more.

Left ArrowRight Arrow

34.74481, -87.66753

Hourly Observations for February 27, 2018

Temp ( °F °C ) Dew Point ( °F °C ) Humidity (%) Winds ( mph kmh ) Pressure ( in mb ) Visibility ( mi km ) Precip ( " mm )
12:53 am 00:53 Clear 44 6.7 39 3.9 83 83 Calm 30.32 1027 10 16 0.00 0.00
1:53 am 01:53 Clear 42 5.6 39 3.9 89 89 Calm 30.32 1027 10 16 0.00 0.00
2:53 am 02:53 Clear 43 6.1 38 3.3 82 82 E 3 6 30.31 1027 10 16 0.00 0.00
3:53 am 03:53 Clear 42 5.6 37 2.8 82 82 Calm 30.32 1027 10 16 0.00 0.00
4:53 am 04:53 Clear 43 6.1 38 3.3 82 82 Calm 30.33 1027 10 16 0.00 0.00
5:53 am 05:53 Clear 42 5.6 38 3.3 85 85 E 3 6 30.33 1027 10 16 0.00 0.00
6:53 am 06:53 Sunny 40 4.4 38 3.3 93 93 ESE 3 6 30.35 1028 9 14 0.00 0.00
7:53 am 07:53 Sunny 48 8.9 42 5.6 80 80 ESE 5 7 30.37 1028 10 16 0.00 0.00
8:53 am 08:53 Sunny 53 11.7 42 5.6 66 66 ESE 9 15 30.36 1028 10 16 0.00 0.00
9:53 am 09:53 Sunny 58 14.4 43 6.1 58 58 SE 10 17 30.35 1028 10 16 0.00 0.00
10:53 am 10:53 Sunny 62 16.7 42 5.6 48 48 SSE 10 17 30.33 1027 10 16 0.00 0.00
11:53 am 11:53 Sunny 65 18.3 40 4.4 40 40 SSE 7 11 30.31 1026 10 16 0.00 0.00
12:53 pm 12:53 Sunny 67 19.4 38 3.3 35 35 VRB 5 7 30.27 1025 10 16 0.00 0.00
1:53 pm 13:53 Sunny 69 20.6 34 1.1 27 27 SE 10 17 30.23 1024 10 16 0.00 0.00
2:53 pm 14:53 Sunny 70 21.1 34 1.1 27 27 S 9 15 30.20 1023 10 16 0.00 0.00
3:53 pm 15:53 Sunny 70 21.1 33 0.6 26 26 SSE 7 11 30.17 1022 10 16 0.00 0.00
4:53 pm 16:53 Sunny 67 19.4 37 2.8 33 33 SSE 8 13 30.16 1021 10 16 0.00 0.00
5:53 pm 17:53 Clear 63 17.2 39 3.9 41 41 SSE 7 11 30.15 1021 10 16 0.00 0.00
6:53 pm 18:53 Clear 62 16.7 39 3.9 43 43 S 6 9 30.16 1021 10 16 0.00 0.00
7:53 pm 19:53 Clear 61 16.1 41 5 48 48 Calm 30.18 1022 10 16 0.00 0.00
8:53 pm 20:53 Mostly Cloudy 58 14.4 46 7.8 65 65 SE 6 9 30.16 1021 10 16 0.00 0.00
9:53 pm 21:53 Cloudy 61 16.1 39 3.9 44 44 Calm 30.17 1022 10 16 0.00 0.00
10:53 pm 22:53 Cloudy with Light Rain 56 13.3 48 8.9 75 75 SE 6 9 30.14 1021 10 16 0.03 0.76
11:53 pm 23:53 Cloudy with Light Rain 56 13.3 48 8.9 75 75 SSE 6 9 30.11 1020 10 16 0.06 1.52

Powered by AerisWeather